Probability
0 0 0 0 0 0 0 0 0 0 0 1 3 5 7 7 6 9 14 15 16 17 18 19 20 18 16 19 24 26 26 24 22 21 20 19 19 19 19 18 17 16 14 12
0 0 0 0 0 0 0 0 0 0 0 1 4 6 8 9 8 10 13 14 15 17 19 19 20 19 20 23 27 28 26 24 20 19 18 18 18 18 18 17 16 15 14 11
0 0 0 0 0 0 0 2 2 1 1 3 6 9 11 10 10 13 15 14 16 18 18 18 19 22 24 27 31 30 26 22 19 17 16 17 16 16 16 15 14 14 12 11
0 0 0 0 0 1 2 3 4 3 3 6 9 12 13 14 14 16 18 20 20 21 20 19 21 24 26 27 29 28 24 21 19 18 17 15 15 16 15 14 13 12 11 10
0 0 0 0 1 3 3 4 5 6 6 9 12 13 16 18 20 20 22 26 27 26 24 24 25 26 25 24 24 23 21 20 18 18 17 16 15 15 15 14 13 11 10 10
0 0 0 1 3 4 4 4 6 9 10 12 12 11 14 21 24 25 26 29 30 29 27 26 26 24 21 20 19 19 19 17 17 16 16 15 13 13 13 13 12 10 10 11
0 0 0 1 3 3 4 6 9 11 13 14 13 12 15 20 24 26 28 28 29 29 27 25 22 20 18 16 15 15 16 16 16 15 13 11 11 12 12 12 12 11 11 12
0 0 1 1 2 3 5 8 11 13 13 14 15 17 18 19 22 25 25 25 25 25 24 22 20 18 17 15 13 13 15 16 16 14 11 10 11 13 12 11 11 11 11 12
1 1 2 2 1 4 7 9 12 13 13 14 16 18 18 19 21 24 24 22 20 20 21 20 19 17 17 16 16 16 16 15 14 13 11 11 13 14 11 9 9 10 11 11
1 1 2 2 2 5 9 11 11 13 14 16 17 17 18 19 20 22 21 19 18 18 20 21 20 18 17 17 19 19 18 16 15 14 13 14 15 14 11 9 10 10 11 12
1 1 2 3 4 7 11 11 11 12 15 16 16 18 20 21 21 19 18 17 18 20 22 21 20 18 17 18 19 20 21 19 16 15 15 15 15 13 10 9 9 10 11 11
3 3 4 6 6 7 9 10 10 13 15 15 15 17 21 22 20 17 16 16 19 22 24 23 21 19 18 17 18 19 21 20 16 14 14 14 13 11 8 7 5 6 7 6
5 6 7 7 7 7 8 9 10 13 15 14 14 15 17 18 17 15 15 16 18 21 22 22 20 18 17 16 16 17 19 18 16 14 13 12 11 10 8 6 3 3 3 2
5 7 8 8 9 9 9 11 13 15 16 14 12 11 11 11 12 13 13 15 15 17 18 18 17 17 17 16 15 15 16 16 16 15 13 11 10 10 9 8 6 4 3 2
5 7 8 9 10 11 12 15 17 18 16 13 10 7 6 7 8 9 10 11 11 12 13 14 14 15 16 16 15 15 15 14 14 15 14 12 11 10 10 9 7 5 5 4
6 6 8 10 12 13 14 16 18 17 15 11 6 3 3 4 5 6 7 8 10 11 12 13 13 13 15 14 13 14 14 12 12 12 12 12 11 10 9 8 7 6 6 6
6 6 8 11 13 14 15 16 15 13 11 7 3 1 1 2 4 5 7 8 11 13 14 14 14 13 13 13 11 11 11 10 10 10 11 11 10 10 9 7 6 5 6 6
6 6 7 10 11 12 12 11 10 8 6 3 1 0 1 2 5 6 7 9 12 15 16 14 12 12 12 11 10 9 8 8 9 10 9 8 8 9 8 6 5 5 5 4
6 6 7 7 7 8 7 6 6 5 3 1 1 1 2 4 5 6 5 5 8 12 13 11 7 8 10 10 9 9 8 7 8 9 8 7 7 8 7 5 4 4 3 2
5 5 5 5 4 3 3 3 4 3 3 2 2 2 3 4 4 4 3 2 3 7 8 6 4 5 8 8 8 8 7 7 7 7 7 7 6 7 6 4 3 3 2 2
4 4 3 3 3 2 3 3 3 3 3 3 2 2 2 3 3 2 1 1 1 3 4 3 4 5 5 6 7 8 8 7 7 7 7 6 6 6 5 4 3 2 2 2
5 4 3 2 1 1 2 2 2 2 2 1 1 1 1 2 2 1 1 1 1 1 2 3 4 4 3 3 5 7 7 7 8 7 6 6 6 5 5 4 3 2 2 2
5 6 4 2 1 1 1 1 1 0 1 1 0 0 0 1 1 0 0 0 0 0 1 2 2 1 1 1 3 4 5 5 6 6 4 4 5 5 5 4 3 2 3 3
4 5 5 2 2 1 1 1 1 1 1 1 0 0 0 0 0 0 0 0 0 0 1 1 1 0 0 1 1 2 2 3 3 3 2 2 2 3 4 4 3 3 3 3
3 4 4 3 2 1 1 1 1 1 2 1 0 0 0 0 0 0 0 0 0 0 0 0 0 0 0 0 0 0 1 1 1 1 0 0 0 1 3 3 3 3 3 3
4 5 5 3 2 1 1 1 1 1 1 1 0 0 0 0 1 1 1 0 0 0 0 1 1 0 0 0 0 0 0 0 0 0 0 0 0 1 2 3 3 3 3 3
4 6 5 2 1 1 1 2 2 1 1 0 0 0 0 1 2 2 2 1 0 0 1 2 2 1 1 1 0 0 0 0 0 0 0 0 1 1 2 3 3 3 3 2
Wind_Speed
12 10 10 10 11 11 13 13 13 10 9 6 5 4 3 3 4 4 4 4 4 4 4 4 4 4 4 4 4 4 4 3 3 2 2 1 0 0 1 2 2 3 3 3
13 12 12 13 13 13 14 13 13 11 10 5 3 3 3 4 4 5 5 5 5 4 4 5 5 4 4 4 4 4 4 3 3 2 1 1 1 0 0 1 1 2 3 3
12 10 12 14 13 13 13 12 12 12 7 3 3 3 3 3 4 5 4 4 4 4 4 4 5 5 4 4 4 4 4 4 3 2 2 1 1 1 1 1 1 1 2 2
10 10 14 8 5 8 10 9 8 6 4 4 3 2 2 2 3 3 2 3 3 3 4 4 5 5 4 5 4 4 4 3 3 3 2 2 1 1 1 1 1 1 2 2
9 12 12 7 4 5 8 7 4 4 3 3 2 3 3 1 1 1 2 2 3 3 4 3 4 5 4 4 4 4 3 3 3 3 2 2 1 1 1 2 2 2 2 2
9 11 11 5 1 3 7 8 1 2 2 2 3 5 2 3 1 2 3 3 3 3 4 4 4 4 4 4 4 3 3 3 3 2 2 2 1 1 1 2 2 3 2 2
11 11 8 2 0 4 8 2 1 2 2 2 2 4 3 3 3 3 3 4 4 3 3 3 3 3 3 4 3 3 3 3 2 2 2 2 2 2 2 2 2 3 2 2
10 11 7 3 2 3 3 3 1 1 1 1 1 3 3 3 3 3 3 3 3 3 3 2 3 3 3 2 2 3 3 3 3 2 3 2 2 2 3 3 3 3 3 3
5 4 3 1 1 2 3 2 2 1 1 0 1 2 2 2 3 2 2 2 2 2 2 2 2 2 3 2 2 3 3 3 3 3 3 2 3 3 4 4 4 3 3 3
5 4 2 1 1 2 2 3 2 1 0 1 1 2 2 2 2 2 2 2 1 1 1 1 1 2 2 2 2 3 4 4 4 4 3 3 3 3 3 3 3 3 3 3
7 5 3 3 2 2 2 2 1 0 1 1 1 1 2 2 2 1 1 1 0 0 0 0 0 1 1 2 2 3 4 4 4 3 3 3 3 2 3 2 2 3 3 4
5 2 4 3 2 3 2 1 0 1 1 1 1 1 1 1 1 1 1 1 0 0 1 1 1 1 1 1 2 3 3 4 3 3 3 3 3 3 2 3 3 4 3 4
4 4 4 3 3 3 2 2 1 2 2 1 1 1 1 1 1 1 1 1 1 1 1 1 1 1 1 2 3 4 4 3 4 3 3 4 4 3 3 4 6 6 5 5
3 3 4 3 3 2 2 2 1 2 2 2 2 1 1 1 1 1 1 1 1 1 1 2 1 1 2 2 3 4 4 3 4 3 3 4 4 4 4 4 3 3 5 6
4 4 4 3 2 2 2 2 2 2 2 2 2 1 1 1 1 1 1 2 1 2 2 2 2 2 2 3 3 4 4 3 3 3 4 4 3 4 4 4 4 3 2 3
4 4 3 3 3 3 3 3 3 2 2 2 1 1 1 1 1 1 1 1 2 2 2 2 2 2 3 3 3 3 3 2 4 4 4 3 3 3 3 3 4 3 3 2
4 3 3 4 4 3 3 2 2 2 2 1 1 1 1 1 1 1 1 1 1 2 2 2 3 3 3 3 3 3 3 2 3 4 3 3 3 3 3 3 4 3 3 1
5 4 4 3 3 2 2 2 2 2 1 1 1 1 1 1 1 1 1 1 1 1 1 2 3 3 3 2 2 3 3 2 3 3 2 3 3 3 3 3 4 4 2 2
4 4 3 3 3 2 2 1 1 1 1 2 2 1 1 1 1 1 1 1 1 1 1 2 2 3 2 2 2 2 3 2 2 2 2 1 2 3 3 3 2 2 2 1
3 3 3 3 3 2 2 1 1 1 2 2 2 1 1 1 1 1 1 1 1 2 2 2 2 2 2 2 3 2 2 2 2 1 2 2 2 2 2 3 2 2 2 2
2 3 3 3 2 2 2 2 2 1 1 1 2 1 1 1 1 1 2 1 1 2 2 1 1 2 2 2 3 2 2 2 2 2 2 2 2 2 2 3 2 2 2 2
2 2 3 3 2 2 2 2 2 1 2 2 2 1 1 1 1 1 0 1 1 2 2 1 1 3 4 4 2 2 2 2 2 2 2 2 2 2 2 2 2 1 1 1
1 2 2 3 3 2 2 2 2 2 2 2 2 1 1 0 1 1 0 1 1 2 2 2 3 2 3 3 2 2 2 2 2 2 3 3 3 2 2 2 2 1 1 2
1 1 2 2 2 2 2 2 2 2 2 2 2 1 1 1 1 0 1 2 1 2 2 3 2 1 4 2 2 2 2 2 2 3 2 2 2 2 1 1 2 1 1 2
1 2 2 3 3 2 2 2 3 3 3 2 3 2 1 1 1 1 1 1 1 1 1 2 3 3 3 2 1 2 2 2 3 3 2 2 2 1 1 1 1 1 2 2
1 1 1 1 1 1 2 2 2 2 2 2 2 2 1 1 1 1 1 1 1 1 2 1 1 2 2 1 1 2 2 1 1 2 2 2 2 1 1 1 2 1 1 1
1 1 2 2 1 1 1 1 1 1 2 2 2 1 1 1 1 0 0 1 1 1 1 1 1 1 1 2 1 2 2 2 2 2 1 1 1 1 1 2 2 1 1 2
Wind_Direction
259 264 254 246 243 238 245 257 265 269 269 268 241 233 225 214 205 200 188 188 184 183 179 174 171 174 179 175 170 169 169 175 172 170 171 169 116 327 288 277 260 251 250 249
250 249 247 249 247 244 246 254 261 267 272 285 259 241 226 214 206 208 206 194 184 178 175 172 171 175 168 166 165 166 166 171 166 171 166 161 176 190 229 275 280 253 242 249
250 245 248 242 240 242 244 245 251 257 268 260 241 235 234 223 217 217 211 192 188 177 171 171 169 166 165 162 160 163 165 165 163 174 172 173 200 186 214 251 280 289 277 265
249 240 244 245 242 246 245 245 254 265 264 255 259 257 233 218 209 209 201 183 183 172 163 168 155 150 153 151 154 158 161 163 164 175 175 175 192 206 223 237 254 269 283 288
243 239 243 236 228 243 248 239 240 257 259 250 222 224 188 106 161 199 174 163 172 164 154 149 142 144 150 146 148 155 159 164 166 175 176 180 191 227 246 258 262 261 260 272
237 245 246 243 233 261 246 229 172 266 249 242 234 244 131 82 94 120 127 134 142 143 139 137 136 150 158 155 158 168 172 171 169 176 189 207 221 252 264 263 266 273 279 280
237 246 246 359 14 215 233 270 19 258 249 240 269 333 57 85 101 104 106 114 117 118 121 122 137 151 159 160 166 178 182 181 177 189 208 216 232 250 259 264 279 281 279 270
236 243 243 65 161 232 340 22 5 314 278 240 54 69 88 102 111 115 112 114 117 114 104 113 138 151 163 172 182 180 180 188 191 209 237 220 221 234 246 253 244 245 251 260
256 265 31 51 347 32 9 346 343 321 338 174 138 129 130 122 120 118 116 110 117 118 113 112 133 165 179 182 201 199 194 193 197 210 228 233 234 231 232 234 247 256 260 269
251 241 278 275 324 343 334 331 334 334 102 146 155 153 155 138 128 132 133 121 115 126 127 118 151 185 193 194 199 208 210 208 210 217 223 220 239 239 239 249 259 265 270 275
248 260 270 249 280 304 321 318 322 25 122 146 146 148 148 145 130 139 155 132 106 83 191 245 249 227 226 210 210 219 222 223 227 225 221 224 226 245 252 252 278 277 280 283
258 266 266 271 296 293 275 261 221 135 125 132 147 155 147 144 143 156 176 199 210 290 299 301 276 261 248 232 226 233 236 235 239 236 229 236 232 215 200 229 197 221 255 279
283 294 290 287 281 266 249 238 200 177 163 157 137 143 151 146 153 162 214 250 269 277 282 282 274 261 252 238 232 235 250 251 251 243 234 239 241 245 231 211 203 212 222 233
270 280 275 266 265 252 223 207 186 169 150 136 126 138 156 155 151 192 255 281 292 287 282 283 283 287 282 252 239 245 253 241 251 249 243 242 243 249 252 254 244 232 213 210
258 262 264 277 259 224 192 178 175 169 141 123 122 142 158 172 210 262 288 291 286 274 279 286 289 302 300 275 257 256 263 270 271 270 257 248 243 242 248 254 258 257 253 203
266 259 247 236 219 204 190 187 187 181 164 154 153 144 163 216 243 250 268 285 282 289 305 306 304 310 300 283 271 258 253 264 275 273 266 258 248 248 251 256 259 260 259 270
249 241 231 224 211 202 205 211 204 197 193 186 181 171 167 184 242 245 260 293 316 314 316 312 320 324 307 288 279 277 276 236 231 260 262 263 262 260 259 262 263 262 265 277
248 248 238 229 218 206 206 214 215 215 207 189 218 212 211 222 269 299 314 324 321 314 348 348 343 323 310 306 296 294 285 274 262 267 269 274 281 273 262 264 267 268 268 219
240 231 227 222 215 212 211 212 207 193 180 194 208 220 241 260 271 273 284 287 290 292 347 2 345 299 310 327 305 266 274 285 281 278 283 270 262 269 268 266 270 273 282 285
225 208 204 211 212 209 212 213 195 183 197 205 214 215 232 259 267 260 259 267 327 345 353 359 316 312 300 303 297 285 297 309 305 284 268 270 275 279 278 272 264 262 272 282
186 189 196 201 196 200 205 195 188 194 201 221 233 234 236 248 265 269 260 256 50 10 348 0 304 328 314 330 277 301 319 319 310 302 281 278 285 292 291 283 269 256 261 282
177 186 193 189 184 193 195 199 201 193 193 216 231 226 221 214 211 247 298 8 40 18 311 311 10 17 346 312 288 319 319 314 311 316 313 305 298 294 295 298 289 283 279 289
196 185 187 187 192 199 201 207 206 196 200 198 191 203 219 309 321 306 53 56 20 348 303 19 34 32 320 283 300 303 306 314 316 318 315 312 309 308 318 325 320 314 320 324
230 207 197 185 177 182 187 189 189 181 178 171 160 156 174 164 134 32 39 85 43 307 325 71 92 287 267 272 303 310 320 322 315 315 317 315 316 325 337 324 312 321 329 326
220 210 197 187 184 173 169 175 175 167 165 148 134 127 129 73 32 30 18 44 85 267 318 130 167 237 264 304 312 307 310 334 330 320 306 305 318 334 328 320 323 322 328 332
213 194 172 190 157 183 189 189 181 159 149 139 131 132 126 122 142 172 203 229 259 268 291 297 195 230 272 301 311 314 320 321 285 285 312 311 311 321 322 327 325 326 342 333
195 168 168 160 157 180 194 183 158 143 143 142 135 130 125 138 154 125 293 281 278 283 312 320 307 304 314 316 328 342 341 340 337 325 309 300 301 312 335 332 327 333 325 325